Weather History for Wilmington, NC

Change the Weather History Date:

Friday, May 31, 2013

  Actual Average Record
Temperature  
Mean Temperature 74 °F 74 °F  
Max Temperature 83 °F 84 °F 98 °F (1953)
Min Temperature 65 °F 65 °F 50 °F (1984)
Degree Days  
Heating Degree Days 0 0  
Month to date heating degree days 33 25  
Since 1 July heating degree days 2446 2409  
Cooling Degree Days 9 9  
Month to date cooling degree days 164 193  
Year to date cooling degree days 226 281  
Growing Degree Days 23 (Base 50)    
Moisture  
Dew Point 68 °F    
Average Humidity 79    
Maximum Humidity 100    
Minimum Humidity 58    
Precipitation  
Precipitation 0.09 in 0.17 in 1.81 in (2003)
Month to date precipitation 1.30 4.49  
Year to date precipitation 16.71 18.90  
Sea Level Pressure  
Sea Level Pressure 30.21 in    
Wind  
Wind Speed 4 mph (SSE)    
Max Wind Speed 13 mph    
Max Gust Speed 16 mph    
Visibility 7 miles    
Events Fog , Rain    
T = Trace of Precipitation, MM = Missing Value Source: NWS Daily Summary

Daily Weather History Graph

Daily Weather History Graph

Search for Another Location

Airport:

Trip Planner

Search our weather history database for the weather conditions in past years. The results will help you decide how hot, cold, wet, or windy it might be!

Date:

Astronomy

May. 31, 2013 Rise Set
Actual Time 6:00 AM EDT 8:18 PM EDT
Civil Twilight 5:32 AM EDT 8:46 PM EDT
Nautical Twilight 4:56 AM EDT 9:22 PM EDT
Astronomical Twilight 4:18 AM EDT 10:00 PM EDT
Moon 1:03 AM EDT 1:00 PM EDT
Length of Visible Light 15h 14m
Length of Day
14h 17m
Waning Gibbous, 51% of the Moon is Illuminated
May 31
Waning Gibbous
May 31
Last Quarter
Jun 8
New
Jun 16
First Quarter
Jun 23
Full

Hourly Weather History & Observations

Time (EDT) Temp. Heat Index Dew Point Humidity Pressure Visibility Wind Dir Wind Speed Gust Speed Precip Events Conditions
12:53 AM 71.1 °F - 69.1 °F 93% 30.22 in 10.0 mi Calm Calm - N/A   Clear
1:53 AM 70.0 °F - 69.1 °F 97% 30.21 in 10.0 mi Calm Calm - N/A   Clear
2:53 AM 66.9 °F - 66.0 °F 97% 30.21 in 4.0 mi Calm Calm - N/A   Clear
3:00 AM 66.2 °F - 66.2 °F 100% 30.21 in 2.5 mi Calm Calm - N/A   Clear
3:09 AM 66.2 °F - 66.2 °F 100% 30.21 in 10.0 mi Calm Calm - N/A   Clear
3:26 AM 66.2 °F - 66.2 °F 100% 30.21 in 1.8 mi Calm Calm - N/A   Clear
3:36 AM 66.2 °F - 66.2 °F 100% 30.21 in 4.0 mi Calm Calm - N/A   Clear
3:53 AM 66.9 °F - 64.9 °F 93% 30.21 in 8.0 mi Calm Calm - N/A   Scattered Clouds
4:00 AM 66.2 °F - 66.2 °F 100% 30.21 in 10.0 mi Calm Calm - N/A   Partly Cloudy
4:29 AM 66.2 °F - 64.4 °F 94% 30.22 in 10.0 mi Calm Calm - N/A   Mostly Cloudy
4:53 AM 66.0 °F - 64.9 °F 96% 30.21 in 10.0 mi Calm Calm - N/A   Mostly Cloudy
5:12 AM 66.2 °F - 64.4 °F 94% 30.22 in 2.0 mi Calm Calm - N/A   Overcast
5:15 AM 66.2 °F - 64.4 °F 94% 30.22 in 1.2 mi Calm Calm - N/A   Overcast
5:27 AM 66.2 °F - 64.4 °F 94% 30.22 in 2.0 mi Calm Calm - N/A   Overcast
5:34 AM 66.2 °F - 64.4 °F 94% 30.22 in 8.0 mi Calm Calm - N/A   Overcast
5:53 AM 66.0 °F - 64.9 °F 96% 30.22 in 0.8 mi Calm Calm - N/A   Mist
6:01 AM 66.2 °F - 64.4 °F 94% 30.23 in 1.0 mi Calm Calm - N/A   Mist
6:03 AM 66.2 °F - 64.4 °F 94% 30.23 in 3.0 mi Calm Calm - N/A   Overcast
6:35 AM 66.2 °F - 64.4 °F 94% 30.23 in 1.8 mi Calm Calm - N/A   Mostly Cloudy
6:40 AM 66.2 °F - 64.4 °F 94% 30.24 in 1.0 mi Calm Calm - N/A   Mist
6:47 AM 66.2 °F - 64.4 °F 94% 30.24 in 0.8 mi NE 3.5 mph - N/A   Mist
6:53 AM 66.0 °F - 64.9 °F 96% 30.24 in 0.5 mi NE 3.5 mph - N/A Fog Fog
7:04 AM 66.2 °F - 66.2 °F 100% 30.24 in 0.2 mi Calm Calm - N/A Fog Fog
7:19 AM 69.8 °F - 68.0 °F 94% 30.24 in 1.0 mi Calm Calm - N/A   Mist
7:21 AM 69.8 °F - 68.0 °F 94% 30.24 in 3.0 mi Calm Calm - N/A   Overcast
7:39 AM 69.8 °F - 69.8 °F 100% 30.24 in 10.0 mi Calm Calm - N/A   Scattered Clouds
7:53 AM 72.0 °F - 70.0 °F 93% 30.25 in 10.0 mi Calm Calm - N/A   Partly Cloudy
8:53 AM 79.0 °F - 70.0 °F 74% 30.24 in 10.0 mi Calm Calm - N/A   Partly Cloudy
9:53 AM 78.1 °F - 69.1 °F 74% 30.24 in 10.0 mi Calm Calm - N/A   Mostly Cloudy
10:53 AM 80.1 °F 82.9 °F 69.1 °F 69% 30.24 in 10.0 mi Calm Calm - N/A   Overcast
11:53 AM 78.1 °F - 70.0 °F 76% 30.24 in 2.0 mi Variable 3.5 mph - 0.05 in Rain Heavy Rain
12:00 PM 78.8 °F - 69.8 °F 74% 30.24 in 3.0 mi SE 8.1 mph - 0.04 in Rain Light Rain
12:53 PM 80.1 °F 82.9 °F 69.1 °F 69% 30.23 in 10.0 mi SE 5.8 mph - 0.04 in   Overcast
1:53 PM 79.0 °F - 71.1 °F 77% 30.23 in 10.0 mi SW 4.6 mph - N/A   Overcast
2:40 PM 80.6 °F 83.9 °F 69.8 °F 70% 30.21 in 10.0 mi SSE 5.8 mph - 0.00 in   Overcast
2:53 PM 81.0 °F 84.4 °F 70.0 °F 69% 30.20 in 10.0 mi SSE 5.8 mph - 0.00 in   Overcast
3:00 PM 80.6 °F 83.9 °F 69.8 °F 70% 30.20 in 10.0 mi SSE 5.8 mph - N/A   Mostly Cloudy
3:11 PM 80.6 °F 83.9 °F 69.8 °F 70% 30.20 in 10.0 mi Variable 3.5 mph - N/A   Overcast
3:26 PM 80.6 °F 83.9 °F 69.8 °F 70% 30.19 in 10.0 mi SSW 10.4 mph - N/A   Overcast
3:34 PM 78.8 °F - 69.8 °F 74% 30.19 in 10.0 mi SSE 9.2 mph - N/A   Overcast
3:53 PM 79.0 °F - 70.0 °F 74% 30.19 in 10.0 mi SE 6.9 mph - 0.00 in   Overcast
4:46 PM 82.4 °F 86.3 °F 69.8 °F 66% 30.17 in 10.0 mi SSE 8.1 mph - N/A   Overcast
4:53 PM 81.0 °F 83.8 °F 68.0 °F 65% 30.17 in 10.0 mi Variable 5.8 mph - N/A   Mostly Cloudy
5:00 PM 80.6 °F 83.2 °F 68.0 °F 65% 30.17 in 10.0 mi South 6.9 mph - N/A   Mostly Cloudy
5:53 PM 81.0 °F 83.8 °F 68.0 °F 65% 30.17 in 10.0 mi South 10.4 mph - N/A   Clear
6:53 PM 80.1 °F 81.9 °F 64.9 °F 60% 30.17 in 10.0 mi SSW 10.4 mph - N/A   Clear
7:53 PM 77.0 °F - 66.9 °F 71% 30.16 in 10.0 mi South 8.1 mph - N/A   Clear
8:53 PM 73.9 °F - 69.1 °F 85% 30.16 in 10.0 mi South 4.6 mph - N/A   Clear
9:53 PM 73.0 °F - 69.1 °F 87% 30.18 in 10.0 mi South 4.6 mph - N/A   Clear
10:53 PM 72.0 °F - 69.1 °F 91% 30.18 in 10.0 mi South 3.5 mph - N/A   Clear
11:53 PM 70.0 °F - 68.0 °F 93% 30.18 in 10.0 mi South 3.5 mph - N/A   Clear